FlightSource - Aviation Photo Database

World Wide Airport Lookup


Search by ICAO
Or
Search by City

FlightSource.ca - Aviation Photo Database - Shishmaref Airport Information
Airport Identification
Name: Shishmaref Airport
ICAO: PASH
IATA: SHH
Airport Location
City: Shishmaref
Region: AK
Country: United States
Continent: North America
Latitude: 66.2496
Longitude: -166.089
Airport Information
Type: Medium Airport
Elevation: 12 Feet ASL
Flight Status: PASH
More Info: PASH
Airport Weather    
Metar: PASH 170856Z AUTO 33007KT 10SM OVC024 01/M04 A2961 RMK AO2 SLP029 T00111039 400220011 57003 FZRANO
TAF:


Advertisement